Location: Kutna Hora
(49.9500°N, 15.2670°E)
Time: 07:50:07
(UTC+02:00)

ISS - Pass Details

Date: 01 April 2019
Orbit: 408 x 410 km, 51.6° (Epoch: 26 April)

Event Time Altitude Azimuth Distance (km) Brightness Sun altitude
Rises 21:45:34 0° 288° (WNW) 2,339 1.3 -20.8°
Reaches altitude 10° 21:47:41 10° 283° (WNW) 1,475 0.0 -21.1°
Enters shadow 21:50:19 45° 247° (WSW) 570 -3.0 -21.5°
